Location: Unspecified
(0.0000°N, 0.0000°E)
Time: 09:24:28
(UTC+01:00)

Vanguard 1 - Visible Passes

Search period start: 31 October 2014 00:00
Search period end: 10 November 2014 00:00
Orbit: 652 x 3835 km, 34.2° (Epoch: 30 October)

Date Brightness Start Highest point End Pass type
(mag) Time Alt. Az. Time Alt. Az. Time Alt. Az.
31 Oct 12.9 01:52:03 10° SW 02:20:38 28° E 02:25:00 10° ENE visible
31 Oct 11.4 04:33:32 50° W 04:37:03 63° NW 04:45:49 10° NE visible
31 Oct 13.8 18:47:27 10° WSW 18:58:25 26° SSW 19:14:28 10° SSE visible
31 Oct 14.1 21:18:09 10° SW 21:31:42 19° S 21:46:31 10° SE visible
31 Oct 13.6 23:47:10 10° SSW 00:05:15 30° SSE 00:05:15 30° SSE visible
01 Nov 12.6 02:14:04 10° SW 02:42:19 34° E 02:47:09 10° ENE visible
01 Nov 11.6 04:55:12 39° WNW 04:58:31 45° NW 05:06:49 10° NNE visible
01 Nov 14.0 19:11:10 10° WSW 19:22:02 22° SSW 19:36:51 10° SSE visible
01 Nov 14.0 21:41:47 10° SSW 21:56:22 20° S 22:11:29 10° SE visible
02 Nov 13.5 00:09:13 10° SW 00:24:30 33° S 00:24:30 33° S visible
02 Nov 12.4 02:36:15 10° SW 03:03:47 39° ENE 03:08:58 10° ENE visible
02 Nov 11.9 05:16:38 28° WNW 05:19:57 31° NW 05:27:33 10° NNE visible
02 Nov 14.1 19:35:14 10° SW 19:46:00 19° S 19:59:50 10° SSE visible
02 Nov 13.9 22:04:45 10° SSW 22:20:51 23° SSE 22:31:09 17° SE visible
03 Nov 13.5 00:31:08 10° SW 00:43:50 34° SSW 00:43:50 34° SSW visible
03 Nov 12.2 03:25:04 42° NE 03:25:04 42° NE 03:30:30 10° NE visible
03 Nov 12.3 05:37:54 19° WNW 05:41:28 21° NW 05:47:53 10° N visible
03 Nov 14.1 19:59:18 10° SW 20:10:17 18° S 20:23:42 10° SE visible
03 Nov 13.7 22:27:10 10° SSW 22:45:00 27° SSE 22:50:32 25° SE visible
04 Nov 13.6 00:53:03 10° SW 01:03:12 31° SSW 01:03:12 31° SSW visible
04 Nov 12.1 03:46:11 40° NNE 03:46:11 40° NNE 03:51:47 10° NE visible
04 Nov 12.5 05:59:01 11° WNW 06:03:12 14° NW 06:07:22 10° NNW visible
04 Nov 14.1 20:22:58 10° SSW 20:34:46 18° S 20:48:36 10° SE visible
04 Nov 13.5 22:49:12 10° SSW 23:08:45 32° SSE 23:09:57 32° SSE visible
05 Nov 13.7 01:15:03 10° SW 01:22:38 26° SW 01:22:38 26° SW visible
05 Nov 12.2 04:07:11 36° N 04:07:11 36° N 04:12:50 10° NNE visible
05 Nov 14.0 20:45:59 10° SSW 20:59:14 20° SSE 21:14:12 10° SE visible
05 Nov 13.4 23:11:03 10° SW 23:29:26 38° SSE 23:29:26 38° SSE visible
06 Nov 13.6 01:37:13 10° SW 01:42:07 20° SW 01:42:07 20° SW visible
06 Nov 12.3 04:28:03 29° NNW 04:28:03 29° NNW 04:33:39 10° NNE visible
06 Nov 13.9 21:08:23 10° SSW 21:23:29 23° SSE 21:36:16 15° SE visible
06 Nov 13.3 23:32:49 10° SW 23:48:58 42° S 23:48:58 42° S visible
07 Nov 13.4 01:59:41 10° WSW 02:36:01 10° NE 02:36:04 10° NE visible
07 Nov 12.5 04:48:49 23° NNW 04:48:49 23° NNW 04:54:11 10° N visible
07 Nov 14.0 19:05:32 10° SSW 19:13:56 15° S 19:24:20 10° SE visible
07 Nov 13.7 21:30:21 10° SSW 21:47:24 27° SSE 21:55:51 23° SE visible
07 Nov 13.3 23:54:37 10° SW 00:08:32 42° SSW 00:08:32 42° SSW visible
08 Nov 13.3 02:56:43 13° NE 02:56:43 13° NE 02:57:24 10° NE visible
08 Nov 12.7 05:09:30 16° NNW 05:09:30 16° NNW 05:14:15 10° N visible
08 Nov 14.0 19:28:36 10° SSW 19:38:09 16° SSE 19:49:48 10° SE visible
08 Nov 13.5 21:52:04 10° SSW 22:10:56 33° SSE 22:15:28 32° SE visible
09 Nov 13.4 00:16:31 10° SW 00:28:10 38° SW 00:28:10 38° SW visible
09 Nov 13.2 03:17:20 15° NNE 03:17:20 15° NNE 03:18:31 10° NNE visible
09 Nov 12.9 05:30:07 11° NW 05:30:09 11° NW 05:32:33 10° NNW visible
09 Nov 13.9 19:50:57 10° SSW 20:02:19 18° SSE 20:16:02 10° SE visible
09 Nov 13.2 22:13:41 10° SSW 22:34:07 41° SSE 22:35:08 41° SE visible
